Wind_Speed
3 3 3 3 3 3 3 4 4 3 3 3 3 2 2 3 3 3 3 3 3 2 1 1 1 1 1 2 3 3 4 4 4 4 5 5 5 5 5 5 5 5 5 4 5 5 5 6 6
3 3 3 3 3 3 3 3 3 3 3 3 3 2 2 3 3 3 2 2 3 2 1 2 2 2 3 3 4 4 5 5 5 5 6 6 6 6 6 6 6 6 6 5 5 6 6 6 6
3 3 3 3 4 4 4 4 3 3 3 3 3 3 3 3 3 3 2 2 3 2 3 3 3 3 4 4 5 5 5 5 5 5 6 6 7 7 6 6 7 7 7 6 6 6 6 7 7
3 3 3 4 4 4 4 3 3 3 3 3 3 3 3 4 4 4 4 3 3 3 4 4 4 4 4 5 5 5 6 6 5 6 6 6 6 6 6 7 7 7 6 7 7 7 7 7 8
3 3 3 3 4 4 4 4 4 3 3 3 3 3 4 4 5 5 5 5 5 5 5 5 5 5 5 5 4 5 5 5 6 6 6 6 6 6 7 7 7 7 7 7 7 7 8 8 9
3 3 3 3 3 3 3 3 3 3 3 3 4 4 4 5 5 5 5 5 5 5 5 5 5 5 5 5 4 4 5 5 6 6 6 6 6 6 6 7 7 7 7 7 8 8 9 9 9
3 3 3 3 2 3 3 3 3 3 3 3 4 4 5 5 5 6 5 5 5 5 5 5 5 5 5 5 5 5 5 5 6 6 6 6 6 6 6 7 7 7 7 7 8 8 8 9 9
3 2 2 2 2 3 3 3 3 4 4 4 4 5 5 5 5 5 5 5 5 5 4 5 5 5 5 5 5 5 5 6 6 6 6 7 7 7 7 7 7 8 7 7 8 8 9 9 9
2 2 2 3 3 3 3 3 4 4 4 5 5 5 5 5 5 5 5 5 5 5 4 4 5 5 5 5 5 5 5 6 6 7 7 7 8 8 8 8 8 8 7 7 7 8 8 8 9
2 2 2 3 4 4 4 4 4 4 5 5 6 6 6 5 5 5 5 5 5 5 5 5 5 5 5 5 5 5 6 6 7 7 8 8 7 7 8 8 7 8 7 7 7 7 7 7 8
2 2 3 3 4 5 5 6 5 5 5 6 6 6 6 6 6 5 6 6 6 6 6 6 5 6 6 6 6 6 6 6 6 7 7 7 7 8 7 8 8 8 8 7 8 8 7 8 9
3 3 3 4 5 5 6 6 6 6 6 6 6 6 6 6 6 6 6 6 6 6 6 6 6 6 6 6 6 6 6 6 6 7 8 7 8 8 8 8 8 8 8 8 7 8 7 8 8
4 4 4 5 5 6 6 6 6 7 7 7 7 7 7 7 7 7 7 7 6 6 6 5 5 5 6 6 6 6 7 6 6 7 7 7 8 9 9 9 8 8 8 8 8 9 8 8 8
5 5 5 6 6 7 7 7 7 7 7 8 8 7 8 8 8 8 8 7 7 7 7 7 6 6 6 6 7 7 6 6 6 7 8 8 9 9 9 9 9 9 8 8 9 8 8 8 9
6 6 6 6 6 7 7 7 7 8 8 8 8 8 9 9 10 9 9 8 8 8 8 8 8 7 7 8 8 8 8 8 8 8 9 9 9 9 9 9 9 9 9 9 10 9 9 9 9
6 7 7 7 6 6 7 7 8 8 8 8 9 9 9 10 10 10 9 9 9 9 9 9 9 9 9 9 9 9 9 9 9 9 10 10 10 10 10 10 9 9 9 10 10 10 10 10 10
7 7 8 8 7 7 7 7 8 9 9 8 9 9 10 10 10 10 10 10 10 10 10 9 9 10 10 10 11 11 11 11 11 11 11 11 11 10 10 10 11 10 10 10 11 11 11 10 10
7 8 8 8 8 8 7 8 8 9 9 9 10 10 10 11 11 11 11 11 11 11 11 11 11 11 11 11 12 12 13 12 12 12 12 12 12 11 11 11 11 11 11 11 12 12 11 11 11
7 7 8 8 8 8 8 8 9 9 10 10 11 11 11 12 12 12 12 12 12 12 12 12 12 12 12 12 12 13 13 13 13 13 13 13 13 13 12 12 12 12 12 12 12 13 13 12 12
8 8 8 9 9 9 9 9 10 10 10 11 11 12 12 13 13 13 13 13 13 13 13 13 13 13 13 13 14 14 14 14 13 13 13 13 13 13 13 13 13 13 13 13 13 13 14 14 14
9 9 10 10 10 10 10 10 11 11 11 11 12 13 13 13 13 13 14 14 14 14 15 15 15 15 15 15 15 15 15 15 14 14 14 14 14 14 14 13 13 13 13 14 14 14 14 14 14
9 10 10 10 10 11 11 11 11 12 12 12 12 13 13 13 13 14 14 15 15 16 16 16 16 16 16 16 16 16 15 16 16 16 16 15 15 15 15 15 14 14 14 14 15 15 15 15 15
10 10 10 10 11 11 12 12 11 12 13 13 13 13 14 14 14 15 15 16 16 17 17 17 17 17 17 17 17 16 17 17 17 17 17 17 17 16 16 16 16 16 16 16 16 17 17 17 17
11 11 11 11 11 12 12 13 12 13 13 14 14 15 15 15 15 16 17 17 17 17 18 18 19 19 19 19 18 18 18 18 18 18 19 18 18 18 18 17 18 18 18 18 19 19 19 19 19
11 11 12 12 13 14 14 14 14 14 15 15 15 16 16 16 17 17 17 17 18 18 19 20 20 20 20 20 20 20 20 20 19 20 20 20 20 20 19 19 19 19 20 20 20 20 21 20 20
11 12 12 13 14 14 14 14 15 15 16 16 16 17 17 18 18 18 19 19 19 19 19 20 20 21 21 22 22 21 21 22 22 21 21 21 21 21 21 21 21 21 21 21 22 22 22 23 23
12 12 12 13 14 15 15 15 16 16 16 16 17 17 18 18 19 19 19 20 20 21 21 20 20 21 22 23 23 23 22 23 23 23 23 23 22 22 23 23 23 23 23 23 23 23 24 24 24
12 12 12 13 14 15 15 16 16 16 17 17 17 18 18 19 20 20 20 20 20 21 21 22 22 22 23 24 25 25 24 24 24 24 23 24 24 24 25 25 25 24 25 25 25 25 26 26 26
13 13 13 14 15 16 16 16 16 17 18 18 18 19 19 20 20 20 20 21 21 22 23 23 23 24 24 25 25 26 26 25 25 25 25 25 26 26 26 26 26 26 26 26 27 27 28 28 28
14 14 14 15 16 17 18 18 17 18 18 19 20 20 20 20 20 20 21 21 22 23 24 24 24 24 24 25 26 26 27 27 27 27 27 27 28 27 27 27 28 28 28 28 28 28 29 29 29
Wind_Direction
179 183 188 181 176 181 188 193 197 191 183 182 184 183 181 179 191 199 196 195 197 189 182 171 193 251 266 257 268 272 288 299 306 307 311 308 306 302 299 298 300 301 297 294 289 286 286 284 281
182 182 186 186 184 186 190 192 196 193 189 190 191 190 199 198 192 192 198 209 213 221 244 266 286 284 280 269 271 278 289 295 300 302 303 299 297 295 294 292 293 292 290 287 288 289 286 282 281
187 184 183 183 186 192 190 185 186 190 204 209 208 208 210 212 216 218 226 228 229 250 267 272 280 284 282 280 276 279 288 293 296 301 304 303 297 294 291 293 294 294 291 285 286 286 282 282 285
182 178 177 179 187 192 193 195 196 206 218 226 221 216 218 226 232 239 249 250 246 263 277 278 279 281 283 284 282 283 288 291 291 297 303 307 306 295 292 294 296 298 293 287 285 284 280 280 280
165 164 164 174 184 191 195 201 209 213 220 225 227 229 232 233 239 250 258 262 264 267 272 277 279 280 284 286 285 288 291 294 294 296 300 305 302 294 290 288 293 299 297 289 284 281 282 281 280
162 164 165 173 186 196 201 210 222 222 226 232 242 244 243 247 253 257 262 265 268 268 272 275 275 279 282 286 285 283 284 291 296 297 300 305 308 298 290 289 292 293 292 289 284 282 283 282 283
154 159 167 184 198 209 216 221 217 216 219 232 247 252 255 256 257 257 264 265 266 268 272 275 272 275 282 287 288 289 288 289 293 298 299 303 307 306 299 293 291 290 288 287 287 286 284 286 286
163 173 188 204 216 224 229 225 224 221 228 241 247 252 258 257 257 260 263 264 263 265 273 277 274 276 279 287 289 292 299 297 292 298 301 307 309 306 301 299 296 291 287 287 288 288 285 288 289
173 179 203 219 226 233 241 239 230 233 241 248 252 255 258 256 256 256 259 257 258 264 270 271 271 277 279 283 285 289 296 299 302 305 309 314 314 309 307 302 299 295 290 288 290 294 289 285 286
193 196 211 223 231 239 244 250 247 248 251 252 252 250 252 253 252 255 255 252 254 259 267 268 271 273 276 281 283 283 287 294 300 304 307 311 311 310 309 307 304 304 296 292 295 297 290 287 287
215 222 228 236 242 246 249 250 250 253 257 258 256 253 250 252 253 257 257 256 257 262 265 265 268 270 273 276 280 281 285 292 298 300 304 308 310 309 306 305 306 306 304 299 298 295 288 286 286
225 235 242 246 249 249 250 251 253 255 256 259 257 255 254 249 254 258 258 258 262 262 258 257 260 266 270 273 276 282 287 293 301 304 302 302 307 307 304 302 304 299 300 300 300 296 289 289 291
238 243 251 256 256 256 255 253 256 255 255 256 255 255 256 254 255 258 259 260 259 255 253 258 258 263 270 271 274 282 287 290 299 304 300 302 306 306 304 304 301 297 296 295 294 291 286 284 288
249 254 261 265 265 261 258 257 257 255 254 254 254 256 258 258 256 259 259 257 255 255 257 261 264 267 270 271 276 284 290 292 299 305 303 305 305 305 303 303 303 299 295 292 291 290 289 287 290
256 262 269 272 270 266 265 261 259 258 258 257 255 257 259 257 256 256 256 256 256 256 258 263 267 271 270 272 275 280 286 290 295 298 303 304 305 305 305 303 300 299 297 295 293 289 289 288 290
262 266 272 275 276 270 267 266 264 261 258 257 257 258 259 257 256 256 255 257 257 257 259 261 265 269 271 271 274 279 283 288 291 294 298 301 302 303 303 302 299 295 293 294 294 292 289 289 290
262 269 272 273 273 271 269 267 263 259 257 257 258 258 260 260 259 258 259 260 260 261 262 262 265 269 271 272 274 276 279 284 288 291 293 297 298 300 300 299 295 292 290 292 293 290 289 288 289
263 267 270 272 272 270 269 268 265 261 257 257 259 261 260 262 264 261 261 263 263 263 263 264 267 269 272 273 275 276 278 281 285 289 292 293 295 296 295 292 291 292 289 291 293 288 287 287 287
265 267 269 271 271 271 272 271 267 263 259 258 260 261 261 263 264 263 264 265 265 266 266 266 267 270 273 273 275 278 280 281 284 287 289 292 293 293 291 288 288 290 291 293 293 290 287 287 287
268 268 268 269 272 272 271 272 272 269 267 264 263 262 264 266 266 262 264 265 266 268 269 270 269 270 271 274 275 279 281 280 281 283 285 287 290 291 288 286 285 284 286 289 290 291 289 286 286
266 267 269 272 274 273 273 274 276 275 272 270 267 266 267 268 266 268 267 267 268 269 271 272 272 271 273 276 277 278 280 279 281 281 282 283 284 287 286 285 285 284 286 288 288 288 289 289 287
266 269 272 275 277 278 276 277 277 277 273 271 269 267 267 269 269 271 272 272 271 270 271 272 273 273 274 276 277 277 278 279 280 281 281 281 281 282 281 282 283 283 285 287 288 289 289 288 288
268 271 274 277 277 276 277 277 276 276 273 272 271 270 270 272 273 273 274 275 274 272 271 271 273 274 274 275 277 278 278 278 279 279 279 279 278 278 280 280 281 283 284 285 286 287 287 286 286
271 275 277 279 277 275 276 276 275 274 273 272 271 271 271 273 275 276 275 275 275 274 273 273 273 274 275 276 277 278 278 278 279 279 279 277 276 277 279 280 281 284 284 284 284 284 284 284 284
273 274 279 281 278 275 274 275 275 274 275 276 276 275 271 272 274 275 274 273 273 274 274 274 274 274 274 276 276 278 278 278 279 281 280 279 277 275 278 281 281 282 283 283 283 283 283 282 282
278 275 274 276 277 276 275 275 278 277 277 277 278 277 277 276 275 275 274 273 274 275 275 275 275 275 275 275 276 277 279 279 279 280 281 280 279 277 277 279 281 282 282 283 283 283 281 281 281
278 277 278 279 280 279 278 279 280 280 280 278 278 278 277 275 275 275 275 275 274 275 276 276 276 276 276 276 275 276 277 278 279 280 279 279 278 278 279 278 279 280 281 282 282 282 281 281 281
282 281 283 283 283 283 284 284 284 282 282 280 279 279 278 277 277 279 278 277 276 276 275 275 276 276 277 277 276 275 275 276 277 279 279 280 279 278 279 279 279 281 279 281 282 281 280 280 279
282 283 282 282 283 284 288 288 287 285 284 283 281 281 281 279 279 279 279 278 277 276 275 276 276 278 279 278 278 277 276 277 277 278 279 280 281 280 280 279 280 280 280 280 280 280 281 280 279
279 280 279 281 284 284 285 287 287 285 285 285 284 283 281 280 280 280 279 278 278 278 279 279 278 279 280 280 279 278 277 277 277 277 278 278 279 280 281 279 280 279 279 280 280 281 281 280 279
Height
5877 5877 5878 5880 5881 5880 5880 5880 5880 5880 5881 5881 5881 5881 5881 5882 5883 5885 5882 5881 5881 5880 5880 5879 5879 5878 5878 5878 5877 5877 5876 5875 5875 5874 5873 5872 5871 5871 5870 5869 5868 5867 5867 5866 5865 5864 5864 5863 5863
5877 5877 5879 5880 5880 5880 5880 5879 5880 5880 5880 5881 5881 5881 5881 5881 5881 5881 5880 5880 5880 5880 5879 5879 5878 5878 5877 5877 5877 5876 5876 5875 5874 5873 5872 5871 5870 5870 5869 5868 5867 5867 5866 5865 5864 5864 5863 5862 5862
5877 5877 5879 5879 5879 5879 5880 5879 5879 5879 5880 5880 5880 5881 5881 5881 5880 5880 5880 5880 5879 5879 5879 5878 5878 5877 5877 5876 5876 5875 5875 5874 5873 5872 5871 5870 5869 5868 5868 5867 5866 5865 5865 5864 5863 5863 5862 5861 5860
5877 5878 5879 5879 5878 5879 5879 5879 5879 5879 5879 5879 5880 5880 5880 5880 5880 5879 5879 5879 5878 5878 5878 5877 5877 5876 5876 5875 5875 5875 5874 5873 5872 5871 5870 5869 5868 5867 5866 5866 5865 5864 5864 5863 5862 5862 5861 5860 5859
5876 5878 5878 5878 5878 5878 5878 5878 5878 5878 5878 5878 5879 5879 5879 5879 5878 5878 5878 5878 5877 5877 5877 5876 5876 5875 5875 5874 5874 5874 5873 5872 5871 5871 5870 5868 5867 5866 5866 5865 5864 5863 5863 5862 5861 5861 5860 5859 5858
5877 5877 5878 5877 5877 5877 5877 5878 5878 5878 5878 5878 5878 5878 5878 5878 5877 5877 5877 5877 5876 5876 5876 5875 5875 5874 5874 5873 5873 5873 5872 5871 5870 5869 5869 5868 5866 5865 5865 5864 5863 5862 5861 5860 5860 5859 5858 5857 5856
5877 5877 5877 5877 5877 5877 5877 5877 5877 5877 5877 5877 5877 5877 5877 5877 5876 5876 5876 5876 5876 5875 5875 5874 5874 5874 5873 5873 5872 5872 5871 5870 5869 5868 5867 5866 5865 5864 5863 5862 5861 5861 5860 5859 5858 5857 5856 5855 5854
5876 5877 5876 5876 5877 5876 5876 5876 5876 5876 5876 5876 5876 5876 5876 5876 5875 5875 5875 5875 5875 5874 5874 5873 5873 5873 5872 5872 5871 5871 5870 5869 5868 5867 5866 5865 5864 5863 5862 5861 5860 5859 5858 5857 5857 5856 5855 5854 5853
5875 5877 5876 5876 5876 5876 5875 5875 5875 5875 5875 5875 5875 5875 5875 5875 5874 5874 5874 5874 5874 5873 5873 5873 5872 5872 5871 5871 5870 5870 5869 5868 5867 5866 5865 5864 5863 5861 5860 5859 5859 5858 5857 5856 5855 5854 5853 5852 5851
5874 5875 5875 5875 5875 5875 5874 5874 5874 5874 5874 5874 5874 5874 5873 5873 5873 5873 5873 5873 5873 5872 5872 5872 5871 5871 5870 5870 5869 5869 5868 5867 5866 5865 5864 5862 5861 5860 5859 5858 5857 5856 5855 5854 5853 5853 5852 5851 5850
5873 5874 5874 5874 5873 5873 5873 5873 5873 5873 5873 5873 5873 5873 5872 5872 5872 5872 5872 5871 5871 5871 5871 5870 5870 5870 5869 5869 5868 5867 5867 5866 5865 5863 5862 5861 5860 5859 5858 5857 5856 5855 5854 5853 5852 5851 5850 5849 5848
5872 5872 5872 5872 5872 5872 5872 5872 5872 5872 5872 5871 5871 5871 5871 5871 5870 5870 5870 5870 5870 5870 5869 5869 5869 5868 5868 5867 5867 5866 5865 5865 5863 5862 5861 5859 5859 5858 5857 5855 5854 5853 5852 5851 5850 5849 5849 5848 5847
5871 5871 5871 5871 5871 5871 5871 5870 5870 5870 5870 5869 5869 5869 5869 5869 5869 5869 5869 5869 5868 5868 5868 5868 5868 5867 5867 5866 5866 5865 5864 5863 5862 5861 5859 5858 5857 5856 5855 5854 5852 5851 5850 5850 5849 5848 5847 5846 5845
5870 5870 5869 5869 5869 5869 5869 5869 5869 5868 5868 5868 5868 5868 5868 5867 5867 5867 5867 5867 5867 5867 5867 5866 5866 5866 5865 5865 5864 5863 5862 5862 5861 5859 5858 5857 5856 5854 5853 5852 5851 5850 5849 5848 5847 5846 5845 5844 5843
5868 5868 5868 5868 5867 5867 5867 5867 5867 5866 5866 5866 5866 5866 5866 5866 5865 5865 5865 5865 5865 5865 5865 5865 5864 5864 5864 5863 5862 5862 5861 5860 5859 5858 5857 5855 5854 5852 5851 5850 5849 5848 5847 5846 5845 5844 5843 5842 5841
5866 5867 5867 5867 5866 5866 5867 5866 5865 5864 5864 5864 5864 5864 5864 5864 5863 5863 5863 5863 5863 5863 5863 5863 5862 5862 5862 5861 5860 5860 5859 5858 5857 5856 5855 5853 5852 5851 5849 5848 5847 5846 5845 5844 5843 5842 5841 5840 5839
5865 5865 5865 5865 5864 5864 5864 5863 5863 5862 5862 5862 5862 5862 5862 5861 5861 5861 5861 5861 5861 5860 5860 5860 5860 5860 5859 5859 5858 5857 5856 5856 5855 5853 5852 5851 5850 5849 5848 5846 5845 5844 5843 5842 5841 5840 5839 5838 5837
5863 5863 5863 5862 5862 5861 5861 5861 5860 5860 5860 5860 5859 5859 5859 5859 5859 5859 5859 5859 5858 5858 5858 5857 5857 5857 5856 5856 5855 5855 5854 5853 5852 5851 5850 5848 5847 5846 5845 5844 5843 5842 5841 5840 5838 5837 5836 5835 5834
5860 5860 5860 5860 5859 5859 5859 5858 5858 5857 5857 5857 5857 5857 5856 5856 5856 5856 5856 5856 5855 5855 5854 5854 5854 5853 5853 5853 5852 5852 5851 5850 5849 5848 5847 5845 5844 5843 5842 5841 5840 5839 5838 5837 5836 5835 5834 5833 5832
5858 5858 5858 5857 5857 5856 5856 5856 5855 5855 5855 5854 5854 5854 5854 5853 5853 5853 5853 5852 5852 5852 5851 5851 5851 5850 5850 5850 5849 5848 5848 5847 5846 5845 5844 5842 5841 5840 5839 5838 5837 5836 5835 5834 5833 5832 5831 5830 5828
5855 5855 5855 5855 5854 5854 5854 5854 5853 5852 5852 5851 5851 5851 5850 5850 5850 5849 5849 5849 5849 5849 5848 5848 5847 5847 5846 5846 5845 5845 5844 5843 5843 5842 5841 5839 5838 5837 5836 5835 5834 5833 5832 5831 5830 5829 5827 5826 5825
5852 5852 5852 5852 5852 5851 5852 5851 5850 5849 5849 5848 5848 5848 5847 5847 5847 5846 5846 5845 5845 5845 5844 5844 5844 5843 5843 5842 5841 5841 5840 5840 5839 5838 5837 5836 5835 5834 5833 5832 5831 5830 5829 5828 5826 5825 5824 5823 5822
5849 5849 5849 5849 5848 5849 5848 5848 5848 5846 5845 5845 5845 5844 5844 5843 5843 5842 5842 5841 5841 5841 5840 5840 5839 5839 5838 5838 5837 5837 5836 5835 5834 5834 5833 5832 5831 5830 5829 5828 5827 5826 5825 5823 5822 5821 5820 5819 5818
5846 5846 5846 5845 5845 5846 5845 5844 5844 5842 5842 5841 5841 5840 5840 5839 5839 5838 5838 5837 5837 5836 5836 5835 5835 5834 5834 5833 5833 5832 5831 5830 5830 5829 5828 5827 5826 5825 5824 5823 5822 5821 5820 5819 5818 5817 5816 5814 5813
5842 5843 5843 5842 5842 5842 5841 5840 5840 5838 5838 5837 5837 5836 5836 5835 5835 5834 5833 5833 5832 5831 5831 5830 5830 5829 5829 5828 5828 5827 5826 5825 5824 5824 5823 5822 5821 5820 5819 5818 5817 5816 5815 5814 5813 5812 5811 5809 5808
5839 5839 5840 5840 5839 5838 5837 5836 5836 5835 5833 5833 5832 5832 5831 5830 5830 5829 5828 5828 5827 5826 5826 5825 5824 5824 5823 5822 5822 5821 5821 5820 5819 5818 5817 5817 5815 5815 5814 5813 5812 5811 5810 5808 5807 5806 5805 5804 5802
5835 5835 5835 5835 5834 5834 5833 5832 5831 5830 5829 5828 5828 5827 5826 5825 5825 5824 5823 5822 5821 5821 5820 5819 5819 5818 5817 5817 5816 5815 5815 5814 5813 5812 5811 5810 5810 5809 5808 5807 5806 5805 5803 5802 5801 5800 5799 5797 5796
5832 5831 5831 5830 5830 5829 5829 5828 5827 5826 5825 5824 5823 5822 5821 5820 5819 5818 5817 5816 5816 5815 5814 5814 5813 5812 5811 5810 5809 5808 5808 5807 5806 5806 5804 5804 5803 5802 5801 5800 5799 5798 5797 5796 5794 5793 5792 5790 5789
5828 5827 5826 5826 5826 5825 5824 5826 5823 5821 5820 5819 5818 5817 5816 5815 5814 5813 5812 5811 5810 5809 5808 5807 5806 5806 5805 5803 5802 5801 5801 5800 5799 5799 5798 5797 5796 5795 5794 5793 5792 5791 5789 5788 5787 5786 5784 5783 5781
5823 5823 5823 5823 5821 5820 5820 5822 5818 5816 5814 5813 5812 5811 5810 5809 5808 5807 5806 5805 5804 5803 5802 5801 5800 5799 5798 5796 5795 5794 5793 5793 5792 5791 5790 5789 5788 5787 5786 5785 5784 5783 5782 5780 5779 5777 5776 5774 5773